Location: Antioch Baptist Church
(32.6696°N, 85.7327°W)
Time: 12:19:21
(UTC+00:00)

USA 234 - Pass Details

Date: 14 July 2020
Orbit: 1101 x 1106 km, 123.0° (Epoch: 02 August)

Event Time Altitude Azimuth Distance (km) Brightness Sun altitude
Rises 01:14:19 0° 156° (SSE) 3,902 5.6 -4.9°
Reaches altitude 10° 01:16:55 10° 162° (SSE) 2,947 5.1 -5.4°
Maximum altitude 01:23:04 44° 233° (SW) 1,472 4.2 -6.5°
Drops below altitude 10° 01:29:15 10° 304° (NW) 2,958 7.3 -7.6°
Sets 01:31:53 0° 311° (NW) 3,918 8.4 -8.1°
